When you browse on this site, cookies collect data to enhance your experience and personalize the content and advertising you see.
Visit our Privacy Policy to learn more. By continuing to use the site, you agree to this use of cookies and data.
  • In Lithuania
  • List of Countries
  • For 7 days
  • Water Temperature
  • Satellite Maps
  • Weather Map
  • Weather Widgets
  • user-avatar
    Login

    Hourly Weather Lubango

    Today, 27 May, Monday

    Time Temperature Precipitation Wind Pressure Humidity
    00:00 +13°C° 0 mm 2 mps 607 mmHg 35%
    01:00 +13°C° 0 mm 2 mps 608 mmHg 35%
    02:00 +12°C° 0 mm 2 mps 607 mmHg 37%
    03:00 +12°C° 0 mm 2 mps 607 mmHg 38%
    04:00 +12°C° 0 mm 2 mps 607 mmHg 39%
    05:00 +12°C° 0 mm 2 mps 607 mmHg 41%
    06:00 +12°C° 0 mm 2 mps 607 mmHg 43%
    07:00 +12°C° 0 mm 2 mps 608 mmHg 45%
    08:00 +14°C° 0 mm 3 mps 609 mmHg 39%
    09:00 +18°C° 0 mm 3 mps 610 mmHg 33%
    10:00 +21°C° 0 mm 4 mps 611 mmHg 27%
    11:00 +24°C° 0 mm 3 mps 611 mmHg 24%
    12:00 +25°C° 0 mm 2 mps 611 mmHg 22%
    13:00 +27°C° 0 mm 2 mps 611 mmHg 20%
    14:00 +26°C° 0 mm 1 mps 611 mmHg 20%
    15:00 +26°C° 0 mm 1 mps 610 mmHg 20%
    16:00 +26°C° 0 mm 1 mps 610 mmHg 20%
    17:00 +23°C° 0 mm 1 mps 609 mmHg 24%
    18:00 +20°C° 0 mm 1 mps 608 mmHg 29%
    19:00 +16°C° 0 mm 1 mps 607 mmHg 34%
    20:00 +15°C° 0 mm 1 mps 607 mmHg 35%
    21:00 +14°C° 0 mm 1 mps 607 mmHg 36%
    22:00 +14°C° 0 mm 1 mps 607 mmHg 36%
    23:00 +14°C° 0 mm 1 mps 607 mmHg 37%

    Tomorrow, 28 May, Tuesday

    Time Temperature Precipitation Wind Pressure Humidity
    00:00 +13°C° 0 mm 1 mps 607 mmHg 37%
    01:00 +13°C° 0 mm 1 mps 607 mmHg 37%
    02:00 +13°C° 0 mm 1 mps 607 mmHg 37%
    03:00 +13°C° 0 mm 1 mps 607 mmHg 38%
    04:00 +13°C° 0 mm 1 mps 606 mmHg 38%
    05:00 +13°C° 0 mm 1 mps 607 mmHg 38%
    06:00 +13°C° 0 mm 1 mps 607 mmHg 39%
    07:00 +13°C° 0 mm 2 mps 607 mmHg 40%
    08:00 +16°C° 0 mm 2 mps 608 mmHg 35%
    09:00 +20°C° 0 mm 3 mps 610 mmHg 29%
    10:00 +24°C° 0 mm 3 mps 611 mmHg 24%
    11:00 +25°C° 0 mm 3 mps 611 mmHg 23%
    12:00 +26°C° 0 mm 3 mps 611 mmHg 21%
    13:00 +27°C° 0 mm 2 mps 611 mmHg 20%
    14:00 +27°C° 0 mm 2 mps 610 mmHg 20%
    15:00 +26°C° 0 mm 2 mps 610 mmHg 20%
    16:00 +26°C° 0 mm 2 mps 609 mmHg 21%
    17:00 +23°C° 0 mm 2 mps 608 mmHg 29%
    18:00 +19°C° 0 mm 1 mps 607 mmHg 36%
    19:00 +15°C° 0 mm 1 mps 607 mmHg 44%
    20:00 +15°C° 0 mm 1 mps 607 mmHg 46%
    21:00 +14°C° 0 mm 1 mps 607 mmHg 48%
    22:00 +14°C° 0 mm 1 mps 608 mmHg 50%
    23:00 +14°C° 0 mm 1 mps 607 mmHg 50%

    Day after tomorrow, 29 May, Wednesday

    Time Temperature Precipitation Wind Pressure Humidity
    00:00 +13°C° 0 mm 1 mps 607 mmHg 49%
    01:00 +13°C° 0 mm 1 mps 607 mmHg 48%
    02:00 +13°C° 0 mm 1 mps 607 mmHg 48%
    03:00 +13°C° 0 mm 1 mps 607 mmHg 48%
    04:00 +13°C° 0 mm 1 mps 607 mmHg 48%
    05:00 +13°C° 0 mm 1 mps 607 mmHg 47%
    06:00 +13°C° 0 mm 1 mps 607 mmHg 46%
    07:00 +14°C° 0 mm 1 mps 608 mmHg 45%
    08:00 +18°C° 0 mm 1 mps 609 mmHg 39%
    09:00 +21°C° 0 mm 1 mps 611 mmHg 32%
    10:00 +24°C° 0 mm 1 mps 612 mmHg 25%
    11:00 +25°C° 0 mm 2 mps 612 mmHg 25%
    12:00 +26°C° 0 mm 2 mps 612 mmHg 24%
    13:00 +27°C° 0 mm 3 mps 611 mmHg 23%
    14:00 +26°C° 0 mm 3 mps 611 mmHg 23%
    15:00 +26°C° 0 mm 3 mps 610 mmHg 24%
    16:00 +25°C° 0 mm 3 mps 610 mmHg 25%
    17:00 +21°C° 0 mm 3 mps 609 mmHg 32%
    18:00 +18°C° 0 mm 2 mps 608 mmHg 39%
    19:00 +15°C° 0 mm 2 mps 607 mmHg 46%
    20:00 +14°C° 0 mm 1 mps 608 mmHg 48%
    21:00 +14°C° 0 mm 1 mps 608 mmHg 50%
    22:00 +13°C° 0 mm 1 mps 608 mmHg 52%
    23:00 +13°C° 0 mm 1 mps 608 mmHg 52%

    30 May, Thursday

    Time Temperature Precipitation Wind Pressure Humidity
    00:00 +13°C° 0 mm 1 mps 608 mmHg 52%
    01:00 +13°C° 0 mm 1 mps 608 mmHg 52%
    02:00 +13°C° 0 mm 1 mps 607 mmHg 51%
    03:00 +13°C° 0 mm 1 mps 607 mmHg 50%
    04:00 +13°C° 0 mm 1 mps 607 mmHg 50%
    05:00 +13°C° 0 mm 1 mps 607 mmHg 49%
    06:00 +14°C° 0 mm 1 mps 608 mmHg 49%
    07:00 +14°C° 0 mm 1 mps 608 mmHg 48%
    08:00 +18°C° 0 mm 1 mps 610 mmHg 42%
    09:00 +21°C° 0 mm 1 mps 611 mmHg 36%
    10:00 +24°C° 0 mm 2 mps 612 mmHg 30%
    11:00 +25°C° 0 mm 2 mps 612 mmHg 28%
    12:00 +26°C° 0 mm 2 mps 612 mmHg 26%
    13:00 +27°C° 0 mm 3 mps 611 mmHg 24%
    14:00 +26°C° 0 mm 3 mps 611 mmHg 25%
    15:00 +26°C° 0 mm 3 mps 610 mmHg 25%
    16:00 +25°C° 0 mm 3 mps 609 mmHg 26%
    17:00 +21°C° 0 mm 3 mps 609 mmHg 33%
    18:00 +18°C° 0 mm 2 mps 608 mmHg 41%
    19:00 +15°C° 0 mm 2 mps 607 mmHg 48%
    20:00 +14°C° 0 mm 1 mps 607 mmHg 50%
    21:00 +14°C° 0 mm 1 mps 608 mmHg 52%
    22:00 +13°C° 0 mm 1 mps 608 mmHg 53%
    23:00 +13°C° 0 mm 1 mps 608 mmHg 53%

    31 May, Friday

    Time Temperature Precipitation Wind Pressure Humidity
    00:00 +13°C° 0 mm 1 mps 608 mmHg 53%
    01:00 +13°C° 0 mm 1 mps 607 mmHg 52%
    02:00 +13°C° 0 mm 1 mps 607 mmHg 52%
    03:00 +13°C° 0 mm 1 mps 607 mmHg 52%
    04:00 +13°C° 0 mm 1 mps 607 mmHg 51%
    05:00 +13°C° 0 mm 1 mps 607 mmHg 50%
    06:00 +14°C° 0 mm 1 mps 608 mmHg 48%
    07:00 +14°C° 0 mm 1 mps 608 mmHg 47%
    08:00 +18°C° 0 mm 1 mps 609 mmHg 39%
    09:00 +21°C° 0 mm 1 mps 611 mmHg 31%
    10:00 +25°C° 0 mm 2 mps 612 mmHg 24%
    11:00 +26°C° 0 mm 2 mps 612 mmHg 23%
    12:00 +26°C° 0 mm 2 mps 611 mmHg 22%
    13:00 +27°C° 0 mm 3 mps 611 mmHg 21%
    14:00 +27°C° 0 mm 3 mps 610 mmHg 21%
    15:00 +26°C° 0 mm 3 mps 610 mmHg 21%
    16:00 +25°C° 0 mm 3 mps 609 mmHg 22%
    17:00 +21°C° 0 mm 2 mps 608 mmHg 28%
    18:00 +18°C° 0 mm 2 mps 608 mmHg 35%
    19:00 +15°C° 0 mm 1 mps 607 mmHg 42%
    20:00 +15°C° 0 mm 1 mps 607 mmHg 44%
    21:00 +14°C° 0 mm 1 mps 607 mmHg 46%
    22:00 +14°C° 0 mm 1 mps 607 mmHg 48%
    23:00 +14°C° 0 mm 1 mps 607 mmHg 48%

    1 June, Saturday

    Time Temperature Precipitation Wind Pressure Humidity
    00:00 +14°C° 0 mm 1 mps 607 mmHg 48%
    01:00 +14°C° 0 mm 1 mps 607 mmHg 48%
    02:00 +14°C° 0 mm 1 mps 607 mmHg 47%
    03:00 +14°C° 0 mm 1 mps 607 mmHg 45%
    04:00 +14°C° 0 mm 1 mps 607 mmHg 44%
    05:00 +14°C° 0 mm 1 mps 607 mmHg 43%
    06:00 +14°C° 0 mm 1 mps 608 mmHg 42%
    07:00 +14°C° 0 mm 1 mps 608 mmHg 41%
    08:00 +19°C° 0 mm 1 mps 610 mmHg 35%
    09:00 +22°C° 0 mm 1 mps 611 mmHg 29%
    10:00 +26°C° 0 mm 2 mps 612 mmHg 23%
    11:00 +27°C° 0 mm 2 mps 612 mmHg 22%
    12:00 +27°C° 0 mm 1 mps 611 mmHg 21%
    13:00 +28°C° 0 mm 1 mps 611 mmHg 19%
    14:00 +27°C° 0 mm 1 mps 610 mmHg 21%
    15:00 +27°C° 0 mm 1 mps 610 mmHg 22%
    16:00 +26°C° 0 mm 1 mps 609 mmHg 23%
    17:00 +23°C° 0 mm 1 mps 608 mmHg 27%
    18:00 +21°C° 0 mm 1 mps 608 mmHg 31%
    19:00 +18°C° 0 mm 1 mps 607 mmHg 35%
    20:00 +18°C° 0 mm 1 mps 608 mmHg 35%
    21:00 +16°C° 0 mm 1 mps 608 mmHg 36%
    22:00 +16°C° 0 mm 1 mps 608 mmHg 36%
    23:00 +16°C° 0 mm 1 mps 608 mmHg 35%
    Show more